Lid_Strength_Index
2 3 4 5 5 6 7 8 10 10 10 10 11 11 11 10 11 12 12 13 15 15
2 3 4 6 6 7 8 9 11 10 11 11 10 11 13 12 12 13 14 15 16 16
2 3 4 6 7 8 8 10 11 11 11 11 11 11 13 13 14 14 15 16 16 17
2 4 5 6 7 8 8 10 11 11 12 12 12 13 13 13 14 15 15 17 16 17
3 4 5 6 6 7 8 9 10 11 12 12 12 13 14 14 14 15 16 16 17 17
4 4 4 6 7 8 9 10 11 11 11 12 13 13 14 13 14 15 16 16 17 16
4 4 5 6 7 8 10 11 11 11 10 12 13 14 14 14 14 15 16 16 16 16
6 6 7 9 9 10 11 11 11 11 12 13 14 14 14 14 14 16 16 16 16 16
9 9 10 10 11 12 12 12 12 14 14 15 13 13 12 14 15 16 16 16 16 16
11 12 13 12 13 13 13 13 14 14 14 15 14 13 12 13 15 15 15 15 16 16
13 13 14 14 14 15 15 14 15 15 15 15 15 12 12 14 15 15 15 15 16 15
14 14 15 15 15 15 15 16 15 15 15 15 16 12 12 14 15 15 15 16 15 15
15 15 14 15 15 16 16 15 15 16 16 15 16 13 12 13 15 15 16 16 16 15
15 15 14 15 16 16 15 16 17 16 17 16 16 14 12 11 14 14 15 15 16 15